TimeEST,TemperatureF,Dew PointF,Humidity,Sea Level PressureIn,VisibilityMPH,Wind Direction,Wind SpeedMPH,Gust SpeedMPH,PrecipitationIn,Events,Conditions,WindDirDegrees,DateUTC
12:54 AM,39.0,21.9,50,29.72,10.0,SW,6.9,-,N/A,,Mostly Cloudy,220,2014-01-20 05:54:00
1:54 AM,37.9,23.0,55,29.71,10.0,SSW,6.9,-,N/A,,Mostly Cloudy,210,2014-01-20 06:54:00
2:54 AM,39.0,23.0,53,29.71,10.0,SW,8.1,-,N/A,,Mostly Cloudy,230,2014-01-20 07:54:00
3:54 AM,39.0,23.0,53,29.70,10.0,SW,6.9,-,N/A,,Mostly Cloudy,230,2014-01-20 08:54:00
4:54 AM,37.9,24.1,57,29.70,10.0,SSW,3.5,-,N/A,,Mostly Cloudy,200,2014-01-20 09:54:00
5:54 AM,37.0,24.1,59,29.69,10.0,SSW,4.6,-,N/A,,Mostly Cloudy,200,2014-01-20 10:54:00
6:54 AM,37.9,24.1,57,29.69,10.0,SW,4.6,-,N/A,,Mostly Cloudy,230,2014-01-20 11:54:00
7:54 AM,36.0,24.1,62,29.68,10.0,Calm,Calm,-,N/A,,Mostly Cloudy,0,2014-01-20 12:54:00
8:54 AM,36.0,24.1,62,29.68,10.0,Calm,Calm,-,N/A,,Mostly Cloudy,0,2014-01-20 13:54:00
9:54 AM,41.0,24.1,51,29.70,10.0,West,8.1,-,N/A,,Mostly Cloudy,260,2014-01-20 14:54:00
10:54 AM,46.0,23.0,40,29.70,10.0,West,10.4,-,N/A,,Mostly Cloudy,270,2014-01-20 15:54:00
11:54 AM,50.0,21.9,33,29.68,10.0,West,10.4,-,N/A,,Mostly Cloudy,260,2014-01-20 16:54:00
12:54 PM,52.0,21.9,31,29.65,10.0,West,15.0,18.4,N/A,,Mostly Cloudy,280,2014-01-20 17:54:00
1:54 PM,53.1,21.9,30,29.65,10.0,West,13.8,-,N/A,,Mostly Cloudy,280,2014-01-20 18:54:00
2:54 PM,53.1,23.0,31,29.68,10.0,West,13.8,21.9,N/A,,Mostly Cloudy,280,2014-01-20 19:54:00
3:54 PM,52.0,24.1,34,29.70,10.0,West,9.2,18.4,N/A,,Mostly Cloudy,260,2014-01-20 20:54:00
4:54 PM,50.0,25.0,38,29.74,10.0,WNW,12.7,-,N/A,,Mostly Cloudy,300,2014-01-20 21:54:00
5:54 PM,46.9,25.0,42,29.79,10.0,NW,10.4,26.5,N/A,,Mostly Cloudy,320,2014-01-20 22:54:00
6:54 PM,44.1,25.0,47,29.83,10.0,NW,10.4,-,N/A,,Mostly Cloudy,310,2014-01-20 23:54:00
7:54 PM,43.0,26.1,51,29.85,10.0,WNW,3.5,-,N/A,,Mostly Cloudy,300,2014-01-21 00:54:00
8:54 PM,39.9,25.0,55,29.86,10.0,West,5.8,-,N/A,,Mostly Cloudy,280,2014-01-21 01:54:00
9:54 PM,39.9,24.1,53,29.87,10.0,Calm,Calm,-,N/A,,Scattered Clouds,0,2014-01-21 02:54:00
10:54 PM,39.0,25.0,57,29.89,10.0,NW,4.6,-,N/A,,Scattered Clouds,320,2014-01-21 03:54:00
11:54 PM,37.9,25.0,60,29.88,10.0,North,4.6,-,N/A,,Mostly Cloudy,360,2014-01-21 04:54:00